Tracking 19717 objects as of 25-Jun-2019
HD Live streaming from Space Station
objects crossing your sky now

THORAD AGENA D DEB

Track THORAD AGENA D DEB now!
10-day predictions


NORAD ID: 4754
Int'l Code: 1970-025DC
Perigee: 849.4 km
Apogee: 879.9 km
Inclination: 99.6 °
Period: 102.1 minutes
Semi major axis: 7235 km
RCS: 0.0631 m2 (small)
Launch date: April 8, 1970
Source: United States (US)
Launch site: AIR FORCE WESTERN TEST RANGE (AFWTR)

Note: This is SATELLITE DEBRIS
aabbcc
Your satellite tracking list
Your tracking list is empty




NASA's NSSDC Master Catalog

Two Line Element Set (TLE):
1  4754U 70025DC  19175.17153618  .00000686  00000-0  41256-3 0  9990
2  4754  99.6062 255.4305 0021082 193.2830 166.7786 14.10530608472919
Source of the keplerian elements: AFSPC